Time,TemperatureF,DewpointF,PressureIn,WindDirection,WindDirectionDegrees,WindSpeedMPH,WindSpeedGustMPH,Humidity,HourlyPrecipIn,Conditions,Clouds,dailyrainin,SoftwareType,DateUTC
2013-11-20 00:30:00,23.0,16.0,30.41,NW,304,0.0,3.0,74,0.00,,---,0.00,VWS V14.00,2013-11-20 05:30:00,
2013-11-20 01:00:00,23.0,16.0,30.41,North,11,5.0,5.0,74,0.00,,---,0.00,VWS V14.00,2013-11-20 06:00:00,
2013-11-20 01:30:00,22.8,16.1,30.43,NW,308,3.0,3.0,75,0.00,,---,0.00,VWS V14.00,2013-11-20 06:30:00,
2013-11-20 02:00:00,22.2,15.5,30.44,North,350,1.0,4.0,75,0.00,,---,0.00,VWS V14.00,2013-11-20 07:00:00,
2013-11-20 02:30:00,22.1,15.7,30.45,WNW,286,0.0,0.0,76,0.00,,---,0.00,VWS V14.00,2013-11-20 07:30:00,
2013-11-20 03:00:00,21.0,15.5,30.46,ENE,57,0.0,1.0,79,0.00,,---,0.00,VWS V14.00,2013-11-20 08:00:00,
2013-11-20 03:30:00,20.7,15.5,30.48,SSW,201,0.0,1.0,80,0.00,,---,0.00,VWS V14.00,2013-11-20 08:30:00,
2013-11-20 04:00:00,20.1,15.2,30.49,SW,216,0.0,0.0,81,0.00,,---,0.00,VWS V14.00,2013-11-20 09:00:00,
2013-11-20 04:30:00,19.7,15.4,30.50,SW,219,0.0,1.0,83,0.00,,---,0.00,VWS V14.00,2013-11-20 09:30:00,
2013-11-20 05:00:00,19.1,15.1,30.52,SW,235,0.0,2.0,84,0.00,,---,0.00,VWS V14.00,2013-11-20 10:00:00,
2013-11-20 05:30:00,18.6,14.6,30.53,SW,229,0.0,1.0,84,0.00,,---,0.00,VWS V14.00,2013-11-20 10:30:00,
2013-11-20 06:00:00,18.1,14.4,30.53,WSW,237,0.0,0.0,85,0.00,,---,0.00,VWS V14.00,2013-11-20 11:00:00,
2013-11-20 06:30:00,17.9,14.7,30.54,SW,236,0.0,1.0,87,0.00,,---,0.00,VWS V14.00,2013-11-20 11:30:00,
2013-11-20 07:00:00,18.5,15.3,30.55,WSW,241,0.0,1.0,87,0.00,,---,0.00,VWS V14.00,2013-11-20 12:00:00,
2013-11-20 07:30:00,18.8,15.1,30.57,WSW,241,0.0,0.0,85,0.00,,---,0.00,VWS V14.00,2013-11-20 12:30:00,
2013-11-20 08:01:00,19.2,15.7,30.58,WSW,241,0.0,0.0,86,0.00,,---,0.00,VWS V14.00,2013-11-20 13:01:00,
2013-11-20 08:30:00,21.8,17.4,30.59,SW,232,1.0,1.0,83,0.00,,---,0.00,VWS V14.00,2013-11-20 13:30:00,
2013-11-20 09:00:00,25.6,18.2,30.61,East,94,1.0,1.0,73,0.00,,---,0.00,VWS V14.00,2013-11-20 14:00:00,
2013-11-20 09:30:00,26.4,18.0,30.62,SE,140,0.0,2.0,70,0.00,,---,0.00,VWS V14.00,2013-11-20 14:30:00,
2013-11-20 10:00:00,29.0,19.4,30.62,SE,136,3.0,4.0,67,0.00,,---,0.00,VWS V14.00,2013-11-20 15:00:00,
2013-11-20 10:30:00,28.3,18.1,30.62,East,79,1.0,2.0,65,0.00,,---,0.00,VWS V14.00,2013-11-20 15:30:00,
2013-11-20 11:00:00,28.8,18.5,30.62,South,179,1.0,3.0,65,0.00,,---,0.00,VWS V14.00,2013-11-20 16:00:00,
2013-11-20 11:30:00,29.6,18.2,30.61,WNW,285,0.0,1.0,62,0.00,,---,0.00,VWS V14.00,2013-11-20 16:30:00,
2013-11-20 12:00:00,31.6,18.9,30.60,South,191,0.0,3.0,59,0.00,,---,0.00,VWS V14.00,2013-11-20 17:00:00,
2013-11-20 12:30:00,33.9,18.1,30.59,West,271,3.0,4.0,52,0.00,,---,0.00,VWS V14.00,2013-11-20 17:30:00,
2013-11-20 13:00:00,32.9,15.9,30.58,WSW,238,0.0,0.0,49,0.00,,---,0.00,VWS V14.00,2013-11-20 18:00:00,
2013-11-20 13:30:00,32.4,19.7,30.58,ENE,57,0.0,2.0,59,0.00,,---,0.00,VWS V14.00,2013-11-20 18:30:00,
2013-11-20 14:00:00,32.6,18.7,30.57,SSE,165,0.0,2.0,56,0.00,,---,0.00,VWS V14.00,2013-11-20 19:00:00,
2013-11-20 14:30:00,32.8,17.6,30.58,SW,223,2.0,2.0,53,0.00,,---,0.00,VWS V14.00,2013-11-20 19:30:00,
2013-11-20 15:00:00,32.8,17.1,30.58,SW,221,0.0,0.0,52,0.00,,---,0.00,VWS V14.00,2013-11-20 20:00:00,
2013-11-20 15:30:00,32.3,19.2,30.58,SW,223,0.0,1.0,58,0.00,,---,0.00,VWS V14.00,2013-11-20 20:30:00,
2013-11-20 16:00:00,31.9,19.2,30.58,SSW,207,0.0,0.0,59,0.00,,---,0.00,VWS V14.00,2013-11-20 21:00:00,
2013-11-20 16:30:00,31.0,20.6,30.58,North,355,1.0,3.0,65,0.00,,---,0.00,VWS V14.00,2013-11-20 21:30:00,
2013-11-20 17:00:00,29.8,20.5,30.60,North,355,0.0,0.0,68,0.00,,---,0.00,VWS V14.00,2013-11-20 22:00:00,
2013-11-20 17:30:00,29.2,20.3,30.60,North,355,0.0,0.0,69,0.00,,---,0.00,VWS V14.00,2013-11-20 22:30:00,
2013-11-20 18:00:00,28.7,20.5,30.61,North,355,0.0,0.0,71,0.00,,---,0.00,VWS V14.00,2013-11-20 23:00:00,
2013-11-20 18:30:00,27.8,20.0,30.61,North,355,0.0,0.0,72,0.00,,---,0.00,VWS V14.00,2013-11-20 23:30:00,
2013-11-20 19:00:00,27.0,19.5,30.61,North,355,0.0,0.0,73,0.00,,---,0.00,VWS V14.00,2013-11-21 00:00:00,
2013-11-20 19:30:00,25.7,18.9,30.62,North,355,0.0,0.0,75,0.00,,---,0.00,VWS V14.00,2013-11-21 00:30:00,
2013-11-20 20:00:00,25.2,18.7,30.62,North,355,0.0,0.0,76,0.00,,---,0.00,VWS V14.00,2013-11-21 01:00:00,
2013-11-20 20:30:00,24.2,18.3,30.63,North,355,0.0,0.0,78,0.00,,---,0.00,VWS V14.00,2013-11-21 01:30:00,
2013-11-20 21:00:00,22.7,17.5,30.62,North,355,0.0,0.0,80,0.00,,---,0.00,VWS V14.00,2013-11-21 02:00:00,
2013-11-20 21:30:00,22.4,17.5,30.62,North,355,0.0,0.0,81,0.00,,---,0.00,VWS V14.00,2013-11-21 02:30:00,
2013-11-20 22:00:00,21.8,16.9,30.62,North,355,0.0,0.0,81,0.00,,---,0.00,VWS V14.00,2013-11-21 03:00:00,
2013-11-20 22:30:00,21.5,16.9,30.62,North,355,0.0,0.0,82,0.00,,---,0.00,VWS V14.00,2013-11-21 03:30:00,
2013-11-20 23:00:00,21.0,16.4,30.63,North,355,0.0,0.0,82,0.00,,---,0.00,VWS V14.00,2013-11-21 04:00:00,
2013-11-20 23:30:00,21.0,16.9,30.62,North,0,0.0,0.0,84,0.00,,---,0.00,VWS V14.00,2013-11-21 04:30:00,